Regional Weather Roundup
Issued by NWS

Home | Current Version | Previous Version | Text Only | Print | Product List | Glossary On
Versions: 1 2 3 4 5 6 7 8 9 10 11 12 13 14 15 16 17 18 19 20 21 22 23 24 25 26 27 28 29 30 31 32 33 34 35 36 37 38 39 40 41 42 43 44 45 46 47 48 49 50
000
ASUS44 KMEG 191310
RWRTN
TENNESSEE HOURLY STATE WEATHER ROUNDUP
NATIONAL WEATHER SERVICE MEMPHIS TN
800 AM CDT SAT AUG 19 2017

TNZ002-004-019-021-049-052-054-088>092-191400-
WEST TENNESSEE

CITY           SKY/WX    TMP DP  RH WIND       PRES   REMARKS
MEMPHIS INTL   MOSUNNY   79  73  82 SW3       29.98R
NWS MEMPHIS      N/A     79 N/A N/A MISG        N/A
JACKSON        SUNNY     74  69  85 CALM      29.98S
DYERSBURG      SUNNY     74  69  85 CALM      29.98R
SOMERVILLE     SUNNY     75  72  88 CALM      29.98R
COVINGTON      SUNNY     73  72  94 CALM      29.98R
UNION CITY     SUNNY     73  68  83 CALM      29.96S
BOLIVAR        SUNNY     73  70  88 CALM      29.99R
PARIS          SUNNY     73  68  83 S3        29.97S
HUNTINGDON     SUNNY     73  70  88 CALM      29.98S
LEXINGTON      SUNNY     70  68  94 CALM      29.99S
SELMER         SUNNY     73  68  83 S5        30.00R
SAVANNAH       MOSUNNY   73  70  88 CALM      29.99S
$$

TNZ008-025-027-028-033-062-065-066-191400-
NORTH MIDDLE TENNESSEE

CITY           SKY/WX    TMP DP  RH WIND       PRES   REMARKS
NASHVILLE      CLOUDY    73  68  84 S3        30.02R
PORTLAND       MOSUNNY   73  70  88 S6        30.02R
CLARKSVILLE    SUNNY     72  68  87 CALM      29.99S
SMYRNA         CLOUDY    71  68  90 CALM      30.03R
COOKEVILLE     SUNNY     68  66  94 CALM      30.04R
GALLATIN       MOSUNNY   72  68  88 CALM      30.05S
CROSSVILLE     CLOUDY    66  64  93 CALM      30.08S
$$

TNZ061-075-076-078-094-096-097-191400-
SOUTH MIDDLE TENNESSEE

CITY           SKY/WX    TMP DP  RH WIND       PRES   REMARKS
FAYETTEVILLE   SUNNY     72  68  88 CALM      30.04R
TULLAHOMA      SUNNY     70  66  88 CALM      30.05S
WINCHESTER     SUNNY     70  66  88 CALM      30.04S
MCMINNVILLE    SUNNY     70  70 100 CALM      30.04S
COLUMBIA       SUNNY     70  70 100 CALM      30.00S
SHELBYVILLE    SUNNY     70  68  94 CALM      30.03S
$$

TNZ017-018-042-046-047-191400-
NORTHEAST TENNESSEE

CITY           SKY/WX    TMP DP  RH WIND       PRES   REMARKS
TRI CITIES     FOG       66  66 100 CALM      30.07R VSB 3/4
ELIZABETHTON   SUNNY     68  64  88 CALM      30.06S
$$

TNZ012-013-036-069-073-074-191400-
CENTRAL EAST TENNESSEE

CITY           SKY/WX    TMP DP  RH WIND       PRES   REMARKS
KNOXVILLE      MOSUNNY   71  67  87 CALM      30.04R
OAK RIDGE      SUNNY     70  65  84 CALM      30.05S
DOWNTOWN KNOXV SUNNY     70  68  94 CALM      30.04R
GATLINBURG     SUNNY     70  66  88 CALM      30.05R
MORRISTOWN     SUNNY     72  66  83 CALM      30.05R
JACKSBORO      SUNNY     66  66 100 CALM      30.09R
$$

TNZ083-085-099-191400-
SOUTHEAST TENNESSEE

CITY           SKY/WX    TMP DP  RH WIND       PRES   REMARKS
CHATTANOOGA    MOSUNNY   73  67  81 CALM      30.04R
DAYTON         FOG       68  68 100 CALM      30.03S VSB 0
$$

SKY/WX REPORTED AS FAIR MEANS FEW OR NO CLOUDS BELOW
12 THOUSAND FEET.





USA.gov is the U.S. government's official web portal to all federal, state and local government web resources and services.